User: anonymous   Login
Location: Newark
(44.3333°N, 7.6167°E)
Time: 11:06:40
(UTC+00:00)
Language:

CUTE 1.7 + AOD 2 - Orbit

View from above orbital plane
View from above orbital plane
View from above satellite
View from above satellite

Ground track
Ground track

The orbit data is extracted from the following two-line orbital elements,

1 32785U 08021C   20021.16572892  .00000161  00000-0  22999-4 0  9994
2 32785  97.5618  15.8096 0011526 264.7005  95.2898 14.88406271635883
Epoch (UTC): 21 January 2020 03:58:38
Eccentricity: 0.0011526
inclination: 97.5618°
perigee height: 595 km
apogee height: 611 km
right ascension of ascending node: 15.8096°
argument of perigee: 264.7005°
revolutions per day: 14.88406271
mean anomaly at epoch: 95.2898°
orbit number at epoch: 63588

The dashed part of the orbit path shows where the satellite is in the earth's shadow,  

DLR